Stations météo

réclame
Mon MeteoGroup
J6-A, Pays-Bas (6211): Température de l'air & dewpoint: 16.03.2019 07:00:00 - 22.03.2019 07:00:00 (CET)J6-A, Pays-Bas (6211): Vitesse du vent & gusts: 16.03.2019 07:00:00 - 22.03.2019 07:00:00 (CET)J6-A, Pays-Bas (6211): Direction du vent: 16.03.2019 07:00:00 - 22.03.2019 07:00:00 (CET)J6-A, Pays-Bas (6211): reduced air pressure: 16.03.2019 07:00:00 - 22.03.2019 07:00:00 (CET)J6-A, Pays-Bas (6211): visibility: 16.03.2019 07:00:00 - 22.03.2019 07:00:00 (CET)
Date & Time tt [°C] td [°C] ff [km/h] ff [knt] fx [km/h] fx [knt] dd ppp [hPa] vv [km]
22.03.2019 07:00:00 6,8 6,8 29 16 29 16 S 1029,6 0,9
22.03.2019 06:00:00 6,7 6,7 26 14 25 14 S 1030,0 0,4
22.03.2019 05:00:00 6,8 6,7 26 14 25 14 S 1030,5 0,4
22.03.2019 04:00:00 6,5 6,5 21 11 22 12 S 1030,7 -
22.03.2019 03:00:00 6,5 6,5 22 12 25 14 SSW 1031,2 -
22.03.2019 02:00:00 6,6 6,6 22 12 22 12 S 1031,3 -
22.03.2019 01:00:00 6,5 6,4 18 10 22 12 SSW 1031,9 0,3
22.03.2019 00:00:00 6,7 6,4 15 8 18 10 SSW 1032,0 0,2
21.03.2019 23:00:00 7,2 6,9 16 9 18 10 S 1032,0 2,6
21.03.2019 22:00:00 7,5 7,0 13 7 18 10 SSW 1032,6 3,6
21.03.2019 21:00:00 7,6 7,2 11 6 14 8 SSW 1032,6 4,5
21.03.2019 20:00:00 7,5 7,2 13 7 18 10 WSW 1032,7 6
21.03.2019 19:00:00 7,2 6,9 18 10 18 10 WSW 1032,4 3,5
21.03.2019 18:00:00 6,5 6,2 21 11 22 12 SW 1032,2 2,3
21.03.2019 17:00:00 7,8 7,2 22 12 22 12 SW 1032,3 2,5
21.03.2019 16:00:00 7,6 7,1 22 12 25 14 SW 1032,5 1,5
21.03.2019 15:00:00 7,1 7,1 24 13 25 14 WSW 1032,4 0,2
21.03.2019 14:00:00 6,8 6,7 31 17 32 18 SW 1032,5 0,2
21.03.2019 13:00:00 6,8 6,7 26 14 32 18 SW 1032,4 0,1
21.03.2019 12:00:00 6,6 6,5 28 15 36 19 SW 1032,2 0,1
21.03.2019 11:00:00 6,3 6,1 34 18 36 19 WSW 1032,1 0,1
21.03.2019 10:00:00 7,3 6,6 35 19 36 19 SW 1032,0 2,9
21.03.2019 09:00:00 7,4 6,7 35 19 36 19 SW 1031,5 2,9
21.03.2019 08:00:00 7,4 6,6 37 20 36 19 SW 1031,2 3,4
21.03.2019 07:00:00 7,6 6,7 44 24 43 23 SW 1030,7 4,7
21.03.2019 06:00:00 7,9 6,7 42 23 43 23 SW 1030,3 5
21.03.2019 05:00:00 7,9 6,7 46 25 47 25 SSW 1030,2 5
21.03.2019 04:00:00 7,8 6,6 48 26 47 25 SSW 1030,4 5
21.03.2019 03:00:00 8,2 6,8 44 24 47 25 SSW 1030,8 6
21.03.2019 02:00:00 8,2 6,7 44 24 43 23 SSW 1031,1 8
21.03.2019 01:00:00 8,5 6,9 46 25 47 25 SSW 1031,2 9
21.03.2019 00:00:00 8,5 6,9 42 23 43 23 SSW 1031,1 10
20.03.2019 23:00:00 8,2 6,9 39 21 40 21 SW 1031,2 8
20.03.2019 22:00:00 8,5 7,0 41 22 43 23 SW 1031,0 10
20.03.2019 21:00:00 8,5 7,0 37 20 36 19 SW 1031,2 10
20.03.2019 20:00:00 8,2 7,1 37 20 36 19 SSW 1031,2 8
20.03.2019 19:00:00 8,0 7,0 31 17 36 19 SSW 1031,0 6
20.03.2019 18:00:00 8,0 6,9 29 16 32 18 SW 1030,7 7
20.03.2019 17:00:00 8,0 6,9 35 19 32 18 SSW 1030,6 7
20.03.2019 16:00:00 7,8 6,8 29 16 29 16 SW 1030,9 4,6
20.03.2019 15:00:00 7,8 6,7 28 15 25 14 SW 1030,8 5
20.03.2019 14:00:00 7,8 6,7 26 14 25 14 WSW 1031,0 6
20.03.2019 13:00:00 7,7 6,7 28 15 29 16 W 1030,9 6
20.03.2019 12:00:00 7,6 6,7 29 16 29 16 WSW 1030,5 6
20.03.2019 11:00:00 7,6 6,6 31 17 32 18 WSW 1030,2 7
20.03.2019 10:00:00 7,7 6,7 34 18 36 19 W 1029,8 9
20.03.2019 09:00:00 7,8 6,7 39 21 36 19 W 1029,2 9
20.03.2019 08:00:00 7,8 6,7 37 20 36 19 WSW 1028,8 -
20.03.2019 07:00:00 7,6 6,6 37 20 36 19 WSW 1028,2 -
20.03.2019 06:00:00 7,6 6,6 35 19 36 19 WSW 1027,9 -
20.03.2019 05:00:00 7,9 6,6 39 21 40 21 WSW 1027,6 -
20.03.2019 04:00:00 8,1 6,6 39 21 36 19 WSW 1027,6 -
20.03.2019 03:00:00 8,2 6,6 41 22 43 23 WSW 1027,4 -
20.03.2019 02:00:00 8,4 6,6 41 22 43 23 SW 1027,3 -
20.03.2019 01:00:00 8,4 6,4 44 24 43 23 SW 1027,6 -
20.03.2019 00:00:00 8,2 6,3 42 23 40 21 SW 1027,1 -
19.03.2019 23:00:00 7,8 6,1 35 19 40 21 SSW 1027,3 -
19.03.2019 22:00:00 8,1 5,9 35 19 36 19 SSW 1027,3 -
19.03.2019 21:00:00 7,6 6,2 31 17 29 16 SSW 1027,3 -
19.03.2019 20:00:00 7,4 6,2 31 17 29 16 SSW 1027,1 -
19.03.2019 19:00:00 7,1 6,2 28 15 25 14 SSW 1027,1 -
19.03.2019 18:00:00 7,0 6,1 22 12 22 12 SSW 1026,4 -
19.03.2019 17:00:00 7,0 6,0 22 12 29 16 SSW 1026,1 -
19.03.2019 16:00:00 7,0 6,0 21 11 25 14 SSW 1026,4 -
19.03.2019 15:00:00 7,0 6,0 21 11 18 10 SSW 1026,4 -
19.03.2019 14:00:00 7,2 5,8 21 11 22 12 SSW 1026,8 -
19.03.2019 13:00:00 7,2 5,6 18 10 18 10 SSW 1026,9 -
19.03.2019 12:00:00 7,0 5,4 22 12 22 12 SSW 1026,8 -
19.03.2019 11:00:00 7,0 5,2 21 11 22 12 S 1026,5 -
19.03.2019 10:00:00 6,9 4,8 18 10 18 10 S 1026,1 -
19.03.2019 09:00:00 6,7 4,3 18 10 18 10 S 1025,8 -
19.03.2019 08:00:00 6,5 4,0 16 9 18 10 S 1025,4 -
19.03.2019 07:00:00 6,3 4,1 13 7 14 8 S 1024,9 -
19.03.2019 06:00:00 6,2 3,1 13 7 14 8 S 1024,8 -
19.03.2019 05:00:00 6,1 3,5 11 6 11 6 S 1024,7 -
19.03.2019 04:00:00 6,1 3,0 8 4 7 4 SSW 1024,3 -
19.03.2019 03:00:00 6,1 2,7 9 5 11 6 SSW 1024,6 -
19.03.2019 02:00:00 6,0 2,7 9 5 11 6 SW 1024,3 -
19.03.2019 01:00:00 6,0 1,4 9 5 11 6 SW 1024,1 -
19.03.2019 00:00:00 6,0 2,6 13 7 14 8 WSW 1023,8 -
18.03.2019 23:00:00 6,0 2,2 13 7 14 8 WSW 1023,5 -
18.03.2019 22:00:00 6,1 1,7 13 7 14 8 W 1023,1 -
18.03.2019 21:00:00 6,2 2,0 16 9 18 10 WNW 1022,5 -
18.03.2019 20:00:00 6,2 2,1 14 8 22 12 WNW 1022,1 -
18.03.2019 19:00:00 6,4 2,1 24 13 25 14 WNW 1021,2 -
18.03.2019 18:00:00 6,5 1,2 26 14 25 14 WNW 1020,4 -
18.03.2019 17:00:00 6,5 1,3 29 16 32 18 WNW 1019,9 -
18.03.2019 16:00:00 6,6 0,1 31 17 36 19 WNW 1019,1 -
18.03.2019 15:00:00 6,6 0,3 37 20 36 19 WNW 1018,8 -
18.03.2019 14:00:00 6,6 0,1 37 20 43 23 WNW 1018,1 -
18.03.2019 13:00:00 6,6 -0,3 41 22 40 21 WNW 1017,5 -
18.03.2019 12:00:00 6,3 0,8 42 23 43 23 WNW 1016,9 -
18.03.2019 11:00:00 6,5 0,4 44 24 43 23 WNW 1016,2 -
18.03.2019 10:00:00 6,4 0,9 46 25 54 29 WNW 1015,2 -
18.03.2019 09:00:00 6,5 0,9 50 27 50 27 WNW 1014,0 -
18.03.2019 08:00:00 5,6 0,4 37 20 65 35 WNW 1013,2 -
18.03.2019 07:00:00 6,0 -0,1 57 31 61 33 WNW 1012,3 -
18.03.2019 06:00:00 6,4 1,4 57 31 54 29 WNW 1011,3 -
18.03.2019 05:00:00 6,0 0,9 46 25 61 33 NW 1010,9 -
18.03.2019 04:00:00 6,1 1,7 52 28 58 31 WNW 1009,9 -
18.03.2019 03:00:00 6,4 1,8 54 29 58 31 WNW 1009,3 -
18.03.2019 02:00:00 5,2 1,6 61 33 68 37 WNW 1008,8 -
18.03.2019 01:00:00 6,2 1,5 59 32 65 35 WNW 1007,6 -
18.03.2019 00:00:00 6,2 0,2 54 29 65 35 NW 1007,0 -
17.03.2019 23:00:00 6,9 2,6 54 29 58 31 WNW 1005,9 -
17.03.2019 22:00:00 6,2 2,9 50 27 54 29 WNW 1005,1 -
17.03.2019 21:00:00 6,5 3,3 44 24 61 33 W 1004,0 -
17.03.2019 20:00:00 5,4 2,7 70 38 72 39 WNW 1003,1 -
17.03.2019 19:00:00 7,2 2,2 55 30 54 29 WSW 1002,2 -
17.03.2019 18:00:00 7,0 2,0 54 29 58 31 WSW 1001,5 -
17.03.2019 17:00:00 7,0 1,7 59 32 61 33 W 1000,9 -
17.03.2019 16:00:00 6,8 1,0 63 34 65 35 W 1000,2 -
17.03.2019 15:00:00 6,3 1,0 63 34 65 35 W 999,5 -
17.03.2019 14:00:00 6,1 0,8 61 33 65 35 W 999,0 -
17.03.2019 13:00:00 5,8 0,9 61 33 61 33 W 998,1 -
17.03.2019 12:00:00 5,7 0,9 63 34 61 33 W 997,3 -
17.03.2019 11:00:00 5,8 1,0 59 32 58 31 W 996,5 -
17.03.2019 10:00:00 5,8 1,3 55 30 58 31 W 995,8 -
17.03.2019 09:00:00 5,7 0,4 52 28 54 29 W 994,8 -
17.03.2019 08:00:00 5,9 1,6 55 30 54 29 W 993,9 -
17.03.2019 07:00:00 6,1 0,9 54 29 54 29 W 993,0 -
17.03.2019 06:00:00 6,1 1,3 54 29 54 29 W 992,2 -
17.03.2019 05:00:00 6,0 1,1 50 27 50 27 W 991,8 -
17.03.2019 04:00:00 5,9 0,8 54 29 54 29 W 991,2 -
17.03.2019 03:00:00 6,1 0,5 55 30 58 31 W 990,7 -
17.03.2019 02:00:00 6,5 1,6 55 30 58 31 W 990,1 -
17.03.2019 01:00:00 6,7 2,2 63 34 61 33 W 989,6 -
17.03.2019 00:00:00 7,5 4,7 57 31 79 43 WSW 989,7 -
16.03.2019 23:00:00 7,8 7,0 63 34 68 37 SSW 989,5 -
16.03.2019 22:00:00 9,0 6,3 63 34 68 37 SSW 990,3 -
16.03.2019 21:00:00 9,0 6,0 63 34 61 33 SSW 990,2 -
16.03.2019 20:00:00 9,0 5,8 61 33 61 33 SSW 991,3 -
16.03.2019 19:00:00 9,2 5,9 61 33 58 31 SSW 991,9 -
16.03.2019 18:00:00 9,3 5,8 59 32 58 31 SSW 992,2 -
16.03.2019 17:00:00 9,1 5,7 67 36 76 41 SSW 992,8 -
16.03.2019 16:00:00 9,3 5,7 65 35 68 37 SSW 993,5 -
16.03.2019 15:00:00 9,1 5,7 68 37 72 39 SSW 994,3 -
16.03.2019 14:00:00 9,2 6,1 67 36 68 37 SSW 995,4 -
16.03.2019 13:00:00 9,0 6,3 68 37 76 41 SSW 996,1 -
16.03.2019 12:00:00 9,0 6,8 67 36 68 37 SSW 996,4 -
16.03.2019 11:00:00 8,4 7,2 63 34 65 35 SSW 997,2 -
16.03.2019 10:00:00 7,8 7,3 37 20 40 21 S 998,1 -
16.03.2019 09:00:00 5,4 4,8 39 21 43 23 SE 999,3 -
16.03.2019 08:00:00 5,1 3,7 26 14 29 16 SE 1001,0 -
16.03.2019 07:00:00 5,2 2,7 18 10 18 10 S 1002,1 -

tt = Température de l'air
td = dewpoint
ff = Vitesse du vent
fx = gusts
dd = Direction du vent
ppp = reduced air pressure
vv = visibility

stations d'obs. à proximité